Hourly Data Report for September 07, 2018

TORONTO CITY
ONTARIO
Current Station Operator: ECCC - MSC

43°40'00.000" N
79°24'00.000" W
112.50 m
6158355
71508
XTO

Download Data

Hourly Data (September 2018)
Hourly Data Report for September 7, 2018
TIME
LST
Temp Definition
°C
Dew Point Definition
°C
Rel Hum Definition
%
Precip. Amount Definition
mm

Wind Dir Definition
10's deg

Wind Spd Definition
km/h
Visibility Definition
km
Stn Press Definition
kPa
Hmdx Definition


Wind Chill Definition


Weather Definition


00:00 19.1 12.6 66 0.0 LegendMM LegendMM   101.08     LegendNANA
01:00 18.6 12.4 67 0.0 LegendMM LegendMM   101.04     LegendNANA
02:00 18.2 12.4 69 0.0 LegendMM LegendMM   101.03     LegendNANA
03:00 18.2 12.4 69 0.0 LegendMM LegendMM   101.00     LegendNANA
04:00 18.1 12.3 69 0.0 LegendMM LegendMM   101.01     LegendNANA
05:00 17.6 11.8 69 0.0 LegendMM LegendMM   101.02     LegendNANA
06:00 17.3 11.3 68 0.0 LegendMM LegendMM   101.04     LegendNANA
07:00 18.1 10.6 62 0.0 LegendMM LegendMM   101.04     LegendNANA
08:00 19.2 11.2 60 0.0 LegendMM LegendMM   101.04     LegendNANA
09:00 20.7 12.4 59 0.0 LegendMM LegendMM   101.06     LegendNANA
10:00 21.8 13.5 59 0.0 LegendMM LegendMM   101.06 25   LegendNANA
11:00 22.7 13.5 56 0.0 LegendMM LegendMM   101.05 26   LegendNANA
12:00 22.9 12.4 52 0.0 LegendMM LegendMM   101.00 25   LegendNANA
13:00 22.3 11.9 52 0.0 LegendMM LegendMM   100.96 25   LegendNANA
14:00 22.5 12.7 54 0.0 LegendMM LegendMM   100.90 25   LegendNANA
15:00 22.5 13.3 56 0.0 LegendMM LegendMM   100.86 25   LegendNANA
16:00 22.5 14.0 59 0.0 LegendMM LegendMM   100.84 26   LegendNANA
17:00 22.4 8.8 42 0.0 LegendMM LegendMM   100.85     LegendNANA
18:00 21.8 8.7 43 0.0 LegendMM LegendMM   100.87     LegendNANA
19:00 21.3 8.7 44 0.0 LegendMM LegendMM   100.90     LegendNANA
20:00 19.9 9.8 52 0.0 LegendMM LegendMM   100.96     LegendNANA
21:00 19.2 8.9 51 0.0 LegendMM LegendMM   100.95     LegendNANA
22:00 19.1 8.2 49 0.0 LegendMM LegendMM   100.97     LegendNANA
23:00 18.7 7.6 48 0.0 LegendMM LegendMM   100.97     LegendNANA

Notes on Data Quality.

Legend

  • E = Estimated
  • M = Missing
  • NA = Not Available*
  • [empty] = Indicates an unobserved value
Date modified: